Weather History for KHYR - September, 2011

Change the Weather History Date:

Saturday, September 24, 2011

  Actual Average Record
Temperature  
Mean Temperature 48 °F -  
Max Temperature 57 °F 59 °F 84 °F (2007)
Min Temperature 39 °F 26 °F 21 °F (2000)
Degree Days  
Heating Degree Days 17    
Moisture  
Dew Point 44 °F    
Average Humidity 88    
Maximum Humidity 100    
Minimum Humidity 67    
Precipitation  
Precipitation 0.00 in - - ()
Sea Level Pressure  
Sea Level Pressure 30.10 in    
Wind  
Wind Speed 3 mph (ENE)    
Max Wind Speed 7 mph    
Max Gust Speed -    
Visibility 9 miles    
Events      
Averages and records for this station are not official NWS values.
T = Trace of Precipitation, MM = Missing Value Source: NWS Daily Summary

Daily Weather History Graph

Daily Weather History Graph

Search for Another Location

Airport or City:

Trip Planner

Search our weather history database for the weather conditions in past years. The results will help you decide how hot, cold, wet, or windy it might be!

Date:

Astronomy

Sep. 24, 2011 Rise Set
Actual Time 6:54 AM CDT 6:59 PM CDT
Civil Twilight 6:25 AM CDT 7:29 PM CDT
Nautical Twilight 5:50 AM CDT 8:04 PM CDT
Astronomical Twilight 5:14 AM CDT 8:40 PM CDT
Moon 3:21 AM CDT (9/24) 5:13 PM CDT (9/24)
Length of Visible Light 13h 04m
Length of Day
12h 04m
Waning Crescent, 11% of the Moon is Illuminated
Sep 24
Waning Crescent
Sep 27
New
Oct 3
First Quarter
Oct 11
Full
Oct 19
Last Quarter

Hourly Weather History & Observations

Time (CDT) Temp. Windchill Dew Point Humidity Pressure Visibility Wind Dir Wind Speed Gust Speed Precip Events Conditions
12:30 AM 48.2 °F - 44.6 °F 87% 30.09 in 10.0 mi ENE 4.6 mph - N/A   Overcast
12:53 AM 48.0 °F - 44.1 °F 86% 30.11 in 10.0 mi ENE 4.6 mph - N/A   Overcast
2:53 AM 46.9 °F - 44.1 °F 90% 30.11 in 10.0 mi Calm Calm - N/A   Overcast
3:53 AM 45.0 °F 42.6 °F 43.0 °F 93% 30.11 in 10.0 mi ENE 4.6 mph - N/A   Overcast
4:53 AM 45.0 °F 42.6 °F 43.0 °F 93% 30.12 in 10.0 mi ENE 4.6 mph - N/A   Overcast
5:53 AM 45.0 °F 41.8 °F 43.0 °F 93% 30.12 in 10.0 mi ENE 5.8 mph - N/A   Overcast
6:53 AM 45.0 °F 41.8 °F 43.0 °F 93% 30.13 in 10.0 mi East 5.8 mph - N/A   Overcast
7:53 AM 45.0 °F 42.6 °F 43.0 °F 93% 30.15 in 10.0 mi ENE 4.6 mph - N/A   Overcast
8:53 AM 46.0 °F 43.9 °F 44.1 °F 93% 30.14 in 10.0 mi ENE 4.6 mph - N/A   Overcast
10:53 AM 50.0 °F - 45.0 °F 83% 30.15 in 10.0 mi SE 5.8 mph - N/A   Overcast
12:03 PM 51.8 °F - 44.6 °F 76% 30.11 in 10.0 mi ENE 6.9 mph - N/A   Overcast
1:53 PM 54.0 °F - 44.1 °F 69% 30.10 in 10.0 mi Calm Calm - N/A   Overcast
2:53 PM 55.0 °F - 46.0 °F 72% 30.09 in 10.0 mi Variable 3.5 mph - N/A   Overcast
3:36 PM 57.2 °F - 46.4 °F 67% 30.06 in 10.0 mi Variable 3.5 mph - N/A   Overcast
3:48 PM 55.4 °F - 46.4 °F 72% 30.06 in 10.0 mi Calm Calm - N/A   Overcast
3:53 PM 55.0 °F - 46.0 °F 72% 30.08 in 10.0 mi West 4.6 mph - N/A   Overcast
4:48 PM 55.4 °F - 46.4 °F 72% 30.07 in 10.0 mi North 3.5 mph - N/A   Overcast
4:53 PM 55.0 °F - 46.0 °F 72% 30.09 in 10.0 mi Calm Calm - N/A   Overcast
6:53 PM 48.9 °F - 46.9 °F 93% 30.08 in 10.0 mi Calm Calm - N/A   Clear
7:53 PM 46.0 °F - 45.0 °F 96% 30.10 in 10.0 mi Calm Calm - N/A   Overcast
8:53 PM 45.0 °F - 44.1 °F 97% 30.10 in 10.0 mi Calm Calm - N/A   Partly Cloudy
9:53 PM 42.1 °F - 41.0 °F 96% 30.09 in 10.0 mi Calm Calm - N/A   Clear
10:53 PM 41.0 °F - 41.0 °F 100% 30.09 in 9.0 mi Calm Calm - N/A   Clear
11:12 PM 39.2 °F - 39.2 °F 100% 30.06 in 1.2 mi Calm Calm - N/A   Clear
11:15 PM 39.2 °F - 39.2 °F 100% 30.06 in 0.8 mi Calm Calm - N/A   Partly Cloudy
11:22 PM 39.2 °F 35.9 °F 39.2 °F 100% 30.07 in 1.5 mi East 4.6 mph - N/A   Scattered Clouds
11:24 PM 39.2 °F 35.9 °F 39.2 °F 100% 30.07 in 3.0 mi ENE 4.6 mph - N/A   Mostly Cloudy
11:53 PM 44.1 °F - 44.1 °F 100% 30.09 in 10.0 mi Calm Calm - N/A   Overcast